Regional Weather Roundup
Issued by NWS

Home | Current Version | Previous Version | Graphics & Text | Print | Product List | Glossary Off
Versions: 1 2 3 4 5 6 7 8 9 10 11 12 13 14 15 16 17 18 19 20 21 22 23 24 25 26 27 28 29 30 31 32 33 34 35 36 37 38 39 40 41 42 43 44 45 46 47 48 49 50

000
ASUS43 KMPX 270110
RWRMN
WEATHER ROUNDUP FOR MINNESOTA
NATIONAL WEATHER SERVICE TWIN CITIES/CHANHASSEN MN
700 PM CST THU FEB 26 2015


NOTE: "FAIR" INDICATES FEW OR NO CLOUDS BELOW 12,000 FEET WITH NO
SIGNIFICANT WEATHER AND/OR OBSTRUCTIONS TO VISIBILITY. N/A MEANS
CURRENT SKY AND/OR WEATHER CONDITIONS ARE NOT AVAILABLE.

MNZ060>063-068>070-270200-
   Twin Cities Metro

CITY           SKY/WX    TMP DP  RH WIND       PRES   REMARKS
TWIN CITIES    CLEAR      5  -8  55 NW9       30.46R WCI  -9
ST PAUL        FAIR       6  -7  54 NW12      30.48R WCI  -9
CRYSTAL        CLEAR      7  -7  52 NW8       30.45R WCI  -6
LAKEVILLE      CLEAR      1  -8  66 W8        30.45R WCI -12
EDEN PRAIRIE   CLEAR      4  -8  57 W5        30.46R WCI  -5
SOUTH ST PAUL  CLEAR      8  -6  53 NW6       30.46R WCI  -3
LAKE ELMO      FAIR       5  -6  61 NW5       30.45R WCI  -4
$$
MNZ001>005-007-008-013>017-022>024-027-028-270200-
   Northwest Minnesota

CITY           SKY/WX    TMP DP  RH WIND       PRES   REMARKS
BEMIDJI        CLEAR     -4 -12  68 W6        30.42S WCI -16
HALLOCK        CLEAR      1  -8  66 W5        30.50S WCI  -8
ROSEAU         CLEAR      1  -8  66 W8        30.44S WCI -12
WARROAD        CLEAR      1  -9  60 W9        30.43R WCI -14
THIEF RVR FALL CLEAR      0  -8  71 W5        30.47S WCI -10
CROOKSTON      CLEAR      0  -6  78 NW6       30.52R WCI -12
FOSSTON        CLEAR     -8 -13  77 W3        30.46S
DETROIT LAKES  CLEAR      1  -4  78 NW6       30.46F WCI -10
MOORHEAD       CLEAR      1  -2  85 NW3       30.53S
PARK RAPIDS    CLEAR     -2 -12  62 W7        30.42R WCI -15
MAHNOMEN       FAIR      -2  -7  77 W6        30.47S WCI -14
$$
MNZ006-009>011-018-025>026-270200-
   North Central Minnesota

CITY           SKY/WX    TMP DP  RH WIND       PRES   REMARKS
BAUDETTE       CLEAR      1 -11  57 W7        30.38S WCI -12
FLAG ISLAND    CLEAR      3  -9  55 W10       30.40R WCI -12
INTL FALLS     CLEAR     -6 -16  61 W3        30.38R
WASKISH        CLEAR     -2  -9  71 SW9       30.42R WCI -18
BIG FORK       CLEAR      0 -13  55 W3        30.39R
LONGVILLE      FAIR       0 -13  55 W5        30.42R WCI -10
GRAND RAPIDS   CLEAR      1 -13  51 NW8       30.37R WCI -12
CRANE LAKE     CLEAR      0 -17  46 CALM      30.40R
ORR            CLEAR     -2 -17  50 CALM      30.33S
COOK           CLEAR      0 -15  50 W7        30.36R WCI -13
WALKER         FAIR      -2 -13  58 W6        30.42R WCI -14
$$
MNZ012-019>021-037-270200-
   Northeast Minnesota

CITY           SKY/WX    TMP DP  RH WIND       PRES   REMARKS
DULUTH         CLEAR      4 -12  48 W9        30.33R WCI -10
ELY            CLEAR     -2 -15  55 W3        30.33R
HIBBING        CLEAR      1 -14  49 W5        30.36R WCI  -9
EVELETH        CLEAR      3 -13  47 W8        30.36R WCI -10
DULUTH HARBOR  CLEAR      9  -8  47 W10       30.43R WCI  -6
TWO HARBORS    CLEAR      5  -9  51 W5        30.33S WCI  -4
SILVER BAY     CLEAR      7 -11  43 CALM      30.32S
GRAND MARAIS     N/A      6 -10  47 W9        30.35R WCI  -8
G MARAIS ARPRT PTCLDY    -2 -15  55 W7        30.22S WCI -16
$$
MNZ029>031-032-039>041-046>048-054>057-064-270200-
   West Central Minnesota

CITY           SKY/WX    TMP DP  RH WIND       PRES   REMARKS
FERGUS FALLS   CLEAR      1  -9  60 NW7       30.54S WCI -11
WHEATON        CLEAR     -2  -9  71 W7        30.55S WCI -16
MORRIS         CLEAR      0  -8  71 NW9       30.50R WCI -16
ALEXANDRIA     CLEAR     -2 -10  69 NW7       30.46R WCI -15
ELBOW LAKE     FAIR       0  -8  70 NW7       30.49R WCI -13
WADENA         CLEAR     -2  -9  71 NW5       30.45R WCI -12
GLENWOOD       CLEAR      0  -8  71 NW9       30.46S WCI -16
APPLETON       CLEAR      0  -8  71 NW8       30.53S WCI -15
BENSON         CLEAR      0  -6  78 N9        30.50R WCI -16
ORTONVILLE     CLEAR      0  -9  65 NW7       30.52S WCI -13
MADISON        CLEAR      0  -8  71 NW8       30.54R WCI -15
WILLMAR        FAIR       1  -8  66 NW8       30.49R WCI -12
$$
MNZ033>034-036-042>043-049>051-058-059-270200-
   Central Minnesota

CITY           SKY/WX    TMP DP  RH WIND       PRES   REMARKS
ST CLOUD       CLEAR      2  -8  63 NW8       30.45R WCI -12
SAUK CENTRE    FAIR       1  -8  65 NW9       30.46R WCI -14
PAYNESVILLE    CLEAR      0  -9  66 W9        30.46S WCI -15
AITKIN         CLEAR      3 -11  51 CALM      30.40S
PINE RIVER     CLEAR      1 -11  55 NW5       30.44R WCI  -8
BRAINERD       CLEAR      3 -12  49 W6        30.42R WCI  -8
STAPLES        CLEAR     -2 -11  65 W9        30.44R WCI -18
LONG PRAIRIE   FAIR       1  -8  66 W8        30.45R WCI -12
LITTLE FALLS   CLEAR      3  -9  55 W7        30.45S WCI  -9
LITCHFIELD     CLEAR      3  -6  66 CALM      30.47R
BUFFALO        CLEAR      5  -8  56 W7        30.47R WCI  -7
MAPLE LAKE     CLEAR      5  -5  62 NW7       30.46R WCI  -7
$$
MNZ037-044-045-052-053-270200-
   East Central Minnesota

CITY           SKY/WX    TMP DP  RH WIND       PRES   REMARKS
PRINCETON      CLEAR      1  -9  60 W6        30.44R WCI -10
MORA           CLEAR      5  -9  51 NW3       30.44S
CAMBRIDGE      CLEAR      5  -8  56 W5        30.43R WCI  -4
RUSH CITY      MOCLDY     4 -10  53 NW5       30.44R WCI  -5
MOOSE LAKE     CLEAR      5 -11  47 CALM      30.38S
HINCKLEY       FAIR       5  -8  56 W8        30.42R WCI  -8
CLOQUET        CLEAR      3 -13  47 W8        30.36S WCI -10
MCGREGOR       CLEAR      3  -9  55 W3        30.41R
$$
MNZ071>073-080-081-089-090-097-098-270200-
   Southwest Minnesota

CITY           SKY/WX    TMP DP  RH WIND       PRES   REMARKS
MONTEVIDEO     CLEAR      0  -9  65 N10       30.53R WCI -17
GRANITE FALLS  CLEAR     -2  -8  74 W10       30.54R WCI -19
CANBY          CLEAR     -2  -8  76 NW5       30.54R WCI -13
MARSHALL       CLEAR     -2  -9  71 NW8       30.52R WCI -17
REDWOOD FALLS  CLEAR     -2  -8  76 W10       30.51R WCI -19
OLIVIA         CLEAR      0  -4  85 NW6       30.49R FOG     WCI -12
PIPESTONE      CLEAR      0  -8  71 NW9       30.46R WCI -16
WINDOM         PTCLDY    -4  -9  77 NW6       30.48R WCI -16
WORTHINGTON    CLEAR     19 -15  21 NW7       30.49R WCI  10
JACKSON        CLEAR      0  -8  71 NW8       30.47R WCI -15
TRACY          CLEAR     -3  -8  79 NW7       30.50R WCI -17
SLAYTON        CLEAR     -3 -10  71 NW5       30.47R WCI -14
$$
MNZ065>067-074>077-082>085-091>093-270200-
   South Central Minnesota

CITY           SKY/WX    TMP DP  RH WIND       PRES   REMARKS
MANKATO        CLEAR      0 -15  50 NW12      30.47R WCI -18
NEW ULM        CLEAR      0  -8  71 NW9       30.50R WCI -16
ST JAMES       PTCLDY    -2  -8  78 W8        30.51R WCI -17
FAIRMONT       CLEAR      0  -9  65 NW10      30.46S WCI -17
GLENCOE        CLEAR      2  -5  72 W9        30.47R WCI -12
FARIBAULT      CLEAR      1  -8  66 W7        30.46R WCI -11
OWATONNA       CLEAR     -2  -9  71 W10       30.45R WCI -19
WASECA         CLEAR      0  -8  71 W10       30.47R WCI -17
ALBERT LEA     CLEAR      0  -8  71 NW7       30.44R WCI -13
$$
MNZ078>079-086>088-094>096-270200-
   Southeast Minnesota

CITY           SKY/WX    TMP DP  RH WIND       PRES   REMARKS
ROCHESTER      CLEAR     -2 -10  69 W10       30.41R WCI -19
RED WING       CLEAR      7  -9  47 N3        30.45R
STANTON        CLEAR      4  -6  62 W6        30.44R WCI  -7
DODGE CENTER   PTCLDY     1  -8  66 W10       30.40S WCI -14
WINONA         CLEAR      9  -6  52 NW5       30.46R WCI   0
AUSTIN         CLEAR      0  -8  71 W9        30.43R WCI -16
PRESTON        CLEAR     -2 -10  69 NW10      30.41R WCI -19
$$
ABBREVIATIONS USED IN REMARKS
   TC - TEMPERATURES IN CELSIUS
  WCI - WIND CHILL INDEX
   HX - HEAT INDEX
  VSB - VISIBILITY
$$



USA.gov is the U.S. government's official web portal to all federal, state and local government web resources and services.